User: anonymous   Login
Location: Unspecified
(0.0000°N, 0.0000°E)
Time: 08:32:36
(UTC+00:00)
Language:

CHUBUSAT 3 - Orbit

View from above orbital plane
View from above orbital plane
View from above satellite
View from above satellite

Ground track
Ground track

The orbit data is extracted from the following two-line orbital elements,

1 41339U 16012C   23088.95337179  .00006418  00000-0  45626-3 0  9990
2 41339  31.0130   1.1192 0011900 116.4407 328.1633 15.03218982390443
Epoch (UTC): 29 March 2023 22:52:51
Eccentricity: 0.0011900
inclination: 31.0130°
perigee height: 549 km
apogee height: 565 km
right ascension of ascending node: 1.1192°
argument of perigee: 116.4407°
revolutions per day: 15.03218982
mean anomaly at epoch: 328.1633°
orbit number at epoch: 39044

The dashed part of the orbit path shows where the satellite is in the earth's shadow,  

DLR